User: anonymous   Login
Location: *
(50.8512°N, 5.6907°E)
Time: 17:27:37
(UTC+00:00)
Language:

STARLINK-1243 - Orbit

View from above orbital plane
View from above orbital plane
View from above satellite
View from above satellite

Ground track
Ground track

The orbit data is extracted from the following two-line orbital elements,

1 45234U 20012BJ  20185.50001157  .00017145  00000-0  11931-2 0  9993
2 45234  52.9985   2.5062 0001515 106.2288 268.0609 15.05576963 21160
Epoch (UTC): 03 July 2020 12:00:01
Eccentricity: 0.0001515
inclination: 52.9985°
perigee height: 548 km
apogee height: 551 km
right ascension of ascending node: 2.5062°
argument of perigee: 106.2288°
revolutions per day: 15.05576963
mean anomaly at epoch: 268.0609°
orbit number at epoch: 2116

The dashed part of the orbit path shows where the satellite is in the earth's shadow,  

DLR